Flag for Austria Weather past 2 weeks in Amstetten, Lower Austria, Austria

Now
73 °F

Overcast.


Feels Like: 75 °F
Forecast: 57 / 81 °F
Wind: N/A

Location: Linz / Hoersching-Flughafen

Current Time: Jul 28, 2014 at 2:37:33 PM

Latest Report: Jul 28, 2014 at 2:00 PM


Visibility: 9 mi

Pressure: 29.85 "Hg

Humidity: 69%

Dew point: 62 °F

Location of AmstettenLocation

Historic Weather in Amstetten — Graph

°F

Amstetten temperature yesterday

Maximum temperature yesterday: 79 °F (at 6:00 PM)
Minimum temperature yesterday: 62 °F (at 6:00 AM)
Average temperature yesterday: 70 °F

Past Weeks' High & Low Weather Summary

 TemperatureHumidityPressure
High95 °F (Jul 20, 5:00 PM)100% (Jul 23, 3:00 AM)30.16 "Hg (Jul 23, 3:00 AM)
Low53 °F (Jul 24, 6:00 AM)24% (Jul 20, 5:00 PM)29.70 "Hg (Jul 20, 5:00 PM)
Average70 °F71%29.94 "Hg
* Reported Jul 13 1:00 PM — Jul 28 1:00 PM, Amstetten, Weather by CustomWeather, © 2014

Note: Actual official high and low records may vary slightly from our data, if they occured in-between our weather recording intervals... More about our weather records

Advertising

Amstetten weather history for previous 24 hours

 ConditionsComfort  
Time TempWeatherWind HumidityBarometerVisibility
1:00 PM
Jul 28
72 °FOvercast.N/A70%29.87 "Hg7 mi
12:00 PM72 °FOvercast.5 mph74%29.88 "Hg7 mi
11:00 AM69 °FOvercast.3 mph77%29.90 "Hg6 mi
10:00 AM67 °FOvercast.5 mph81%29.91 "Hg8 mi
9:00 AM66 °FOvercast.5 mph84%29.92 "Hg6 mi
8:00 AM66 °FOvercast.5 mph84%29.93 "Hg6 mi
7:00 AM65 °FOvercast.5 mph86%29.92 "Hg6 mi
6:00 AM65 °FOvercast.5 mph87%29.92 "Hg7 mi
5:00 AM65 °FOvercast.3 mph87%29.92 "Hg8 mi
4:00 AM65 °FOvercast.5 mph87%29.92 "Hg9 mi
3:00 AM66 °FPassing clouds.6 mph87%29.92 "Hg12 mi
2:00 AM66 °FOvercast.5 mph88%29.93 "Hg9 mi
1:00 AM66 °FMild.3 mph86%29.94 "Hg16 mi
12:00 AM68 °FMild.5 mph83%29.94 "Hg17 mi
11:00 PM
Jul 27
69 °FPassing clouds.5 mph82%29.93 "Hg18 mi
10:00 PM71 °FPassing clouds.5 mph76%29.93 "Hg19 mi
9:00 PM73 °FPassing clouds.5 mph66%29.90 "Hg25 mi
8:00 PM76 °FPartly sunny.N/A62%29.89 "Hg19 mi
7:00 PM78 °FPartly sunny.5 mph61%29.87 "Hg25 mi
6:00 PM79 °FPartly sunny.3 mph54%29.85 "Hg22 mi
5:00 PM78 °FPartly sunny.5 mph55%29.88 "Hg19 mi
4:00 PM78 °FScattered clouds.6 mph55%29.90 "Hg13 mi
3:00 PM77 °FScattered clouds.6 mph58%29.90 "Hg19 mi
2:00 PM76 °FScattered clouds.5 mph62%29.91 "Hg17 mi
Weather by CustomWeather, © 2014

See weather overviewHow to use our weather pages